RH
29 37 54 59 61 76 68 62 72 73 67 56 54 45 40 41 38 38 37 35 36 36 36 34 33 30 30 29 28 25 24 23 21 20 19 18 18 16 16 15 14 14 14
34 36 44 52 53 61 62 68 63 66 72 70 58 47 38 38 39 40 41 37 35 34 35 35 34 30 27 28 26 23 23 22 20 18 18 17 15 14 13 12 12 12 11
35 36 37 46 69 61 71 67 67 64 68 71 57 46 42 40 38 35 36 36 34 33 36 33 32 30 29 28 28 26 24 22 22 20 19 16 14 13 12 13 13 13 14
39 35 41 46 55 74 76 74 66 66 69 66 59 50 44 41 40 37 34 34 34 33 31 30 31 31 29 27 25 24 25 24 22 19 16 15 14 14 16 18 19 20 20
43 42 37 41 50 56 71 76 73 73 80 67 60 60 54 42 44 38 34 37 33 32 34 31 30 33 31 32 29 29 23 21 20 19 18 16 18 19 18 18 18 18 20
50 46 47 44 44 55 69 74 66 70 72 73 68 65 75 63 51 42 36 35 35 35 34 34 32 35 36 36 32 25 24 23 20 19 20 21 19 19 17 19 19 21 20
50 52 50 52 51 45 59 63 66 68 80 73 73 74 81 71 59 50 41 38 38 35 37 37 38 41 39 38 38 22 23 21 20 20 22 22 21 21 24 23 21 23 25
27 41 55 52 54 52 59 54 63 70 80 81 83 75 74 74 66 62 53 42 41 39 37 38 40 47 45 43 42 28 22 22 20 20 22 26 26 27 28 25 26 27 24
18 26 41 58 55 56 53 57 58 68 81 91 89 83 80 70 65 67 67 56 56 46 40 43 46 49 55 57 51 36 28 27 24 27 27 26 28 28 28 27 28 25 26
16 16 22 41 59 60 62 59 64 71 83 80 82 68 80 90 73 80 86 79 89 57 38 32 48 57 61 64 49 39 34 32 29 30 33 32 30 28 29 31 28 24 23
18 25 24 37 44 58 64 63 61 61 78 81 74 77 76 91 70 64 70 77 93 64 60 46 48 55 72 71 46 41 36 33 32 34 35 37 34 39 35 32 28 25 23
18 41 53 39 40 54 62 65 60 53 65 69 55 68 77 79 71 60 62 56 77 78 74 52 57 66 80 77 38 39 36 32 34 35 38 43 44 51 44 34 31 27 27
15 30 78 71 53 48 66 64 68 61 57 54 59 55 57 69 74 64 58 59 75 62 71 65 64 69 77 77 41 42 43 41 42 39 41 42 55 65 45 39 34 32 32
14 21 89 100 75 58 60 65 63 61 56 56 54 42 40 51 65 63 47 49 51 66 63 48 50 58 64 53 40 43 45 43 43 44 45 51 77 68 50 41 37 32 33
12 77 46 100 99 97 65 71 71 61 58 55 49 40 36 40 50 56 41 38 42 41 44 42 44 49 47 44 44 45 46 49 50 50 67 83 85 63 55 49 39 35 33
11 15 46 100 100 100 63 83 79 79 65 57 52 47 41 37 39 40 37 30 34 36 46 48 50 50 46 45 46 46 50 53 69 75 100 97 77 68 63 50 44 46 39
13 52 100 100 100 100 80 85 76 80 73 61 55 52 48 42 38 38 44 58 74 77 78 81 70 58 57 58 59 66 71 94 99 100 100 90 78 64 59 52 57 42 37
29 100 100 96 93 99 100 71 100 53 58 65 52 53 53 52 50 57 80 79 90 100 100 100 100 98 93 98 100 97 100 100 100 100 84 82 69 48 47 58 56 58 35
19 99 100 100 100 100 64 99 100 99 57 61 71 60 50 55 62 79 93 100 100 100 100 100 100 100 100 100 100 100 100 100 92 74 68 62 52 48 52 56 45 52 35
14 94 91 72 94 82 96 100 100 97 93 94 98 98 82 56 68 95 100 100 100 100 100 100 100 100 100 100 100 100 100 94 79 68 60 55 46 46 60 56 47 46 36
27 97 79 73 100 84 99 100 100 100 100 99 100 100 100 100 100 100 100 100 100 100 100 100 100 100 100 100 100 100 100 98 92 80 62 51 51 57 43 51 56 39 33
18 52 68 100 99 100 100 100 100 100 88 100 100 100 100 100 100 100 100 100 95 74 66 72 93 100 100 100 100 100 100 100 100 100 95 87 65 57 55 60 48 39 35
17 29 87 99 100 100 100 100 100 92 100 100 100 100 100 100 100 100 100 100 100 92 83 79 81 100 100 100 100 100 100 100 100 98 94 97 80 78 74 49 53 49 32
17 88 71 100 100 100 100 100 100 100 83 89 100 100 100 100 100 100 100 100 100 100 100 100 92 96 100 100 100 93 95 100 86 99 85 79 65 71 57 65 61 44 35
68 99 81 95 100 100 100 100 100 100 100 100 100 100 100 100 100 100 100 100 100 100 100 100 100 100 100 100 99 98 99 100 100 78 86 76 69 50 61 63 46 44 58
32 57 100 94 100 100 100 100 100 100 100 100 90 74 73 91 100 100 100 100 100 99 100 100 100 100 100 100 100 100 100 100 94 81 64 49 45 49 62 62 59 60 67
Wind_Speed
41 44 46 46 44 42 39 36 34 33 30 29 28 24 21 21 18 17 17 17 15 15 14 15 15 16 16 17 18 18 18 19 20 22 23 24 26 28 28 30 32 32 32
46 46 47 48 47 46 45 42 39 36 34 33 31 27 24 24 22 21 21 21 20 19 20 19 19 20 20 20 22 22 22 23 24 24 25 25 25 24 23 24 26 27 29
51 50 49 50 50 49 47 46 45 41 39 37 33 31 28 25 24 24 24 23 23 23 23 23 22 23 24 25 25 26 26 26 25 22 22 20 20 20 22 24 26 29 31
54 54 52 52 52 52 50 49 47 45 43 41 37 33 31 29 27 27 25 25 25 25 25 25 24 24 24 24 25 27 25 23 21 19 18 19 21 21 22 25 29 31 32
60 58 57 56 55 54 54 53 51 48 47 45 41 38 36 33 30 28 27 26 26 27 26 27 26 25 25 25 24 23 21 19 18 18 20 20 21 22 25 27 30 30 31
67 63 61 59 58 58 57 56 54 51 50 48 44 41 39 38 34 34 30 27 28 27 27 28 28 27 28 27 25 23 22 21 21 21 21 23 24 26 29 30 32 33 34
72 70 66 63 62 59 60 59 57 53 53 49 46 44 42 42 38 37 36 33 31 31 30 29 29 29 30 29 28 27 26 25 24 23 24 27 27 28 31 32 34 35 36
76 74 72 67 65 63 61 60 58 56 53 52 50 47 46 46 42 41 40 38 37 35 34 32 32 31 32 31 30 30 30 29 28 28 28 28 29 31 32 32 34 36 37
81 78 75 73 68 66 64 62 60 59 57 54 53 51 49 48 44 42 43 41 40 39 36 36 35 33 33 31 30 31 30 30 29 29 30 32 33 33 34 33 34 37 39
78 79 77 75 73 69 67 65 63 63 59 59 58 55 53 51 48 45 44 43 42 43 41 34 33 34 33 31 30 32 30 32 31 31 32 34 35 35 34 34 35 38 39
83 76 75 77 75 72 70 68 66 64 63 61 59 55 53 53 51 49 47 44 43 44 42 39 36 32 31 31 30 32 33 33 32 34 35 35 37 36 34 35 35 37 37
83 69 65 78 78 76 73 71 69 66 65 63 59 56 56 55 54 50 49 46 45 44 44 39 37 35 33 32 31 34 35 36 35 37 36 38 39 38 36 35 36 38 34
78 77 70 72 81 78 78 73 71 68 66 63 59 57 55 54 52 50 47 46 45 44 42 39 39 37 35 34 34 34 35 37 38 38 39 41 42 39 37 38 39 35 36
79 81 66 68 62 74 76 76 73 69 66 63 61 56 53 51 50 49 46 43 43 42 40 39 37 35 34 35 37 37 38 38 39 41 42 42 43 38 38 39 39 38 39
82 81 71 79 70 67 76 75 72 71 66 63 59 55 53 51 49 48 45 41 41 41 38 38 37 37 36 37 40 40 40 40 41 43 44 43 41 41 38 40 41 41 42
85 83 74 81 76 75 74 70 69 71 68 64 59 56 53 51 49 46 45 41 41 40 39 39 39 39 40 42 42 44 44 44 44 44 42 41 42 41 41 44 43 43 45
90 82 81 69 77 62 68 63 64 71 71 67 61 56 53 50 49 46 45 44 42 41 41 40 42 44 44 45 46 46 45 45 44 42 39 41 43 43 45 47 48 49 48
92 87 86 77 72 64 69 59 66 59 63 66 63 60 55 51 50 47 43 43 44 45 45 44 45 45 47 47 48 46 43 44 45 44 46 43 46 48 49 50 49 53 52
100 97 88 82 80 67 59 62 73 76 59 54 56 54 55 55 53 50 51 46 44 42 47 49 49 48 47 45 44 44 46 47 51 53 52 50 50 52 52 57 57 56 53
104 101 87 88 79 68 73 70 75 64 63 55 52 52 56 57 54 51 47 45 38 42 44 46 50 52 51 49 48 50 52 53 55 57 56 57 56 56 55 60 59 56 57
110 107 87 77 73 78 75 70 74 79 63 62 48 48 51 55 54 49 44 40 42 47 47 44 48 52 51 52 52 52 54 58 60 63 65 65 63 60 67 64 62 57 59
108 106 98 85 82 83 80 74 84 73 70 67 55 52 53 53 53 51 49 47 48 53 55 53 48 46 50 50 51 53 55 58 60 63 64 63 65 69 66 66 64 62 64
109 99 98 97 93 93 79 81 83 72 76 66 63 58 57 58 56 53 51 50 50 55 57 58 53 45 48 54 56 60 60 61 64 65 66 68 70 69 68 66 64 66 67
113 103 94 93 91 95 84 79 86 81 71 65 65 64 58 55 58 58 53 55 57 56 45 50 53 51 49 55 61 64 60 62 66 68 71 72 76 66 66 65 67 70 74
116 106 100 95 83 87 88 76 79 72 73 67 66 64 64 63 61 60 60 58 53 52 50 46 48 56 53 59 58 58 61 65 65 68 71 71 69 65 67 68 71 74 76
112 103 102 95 95 86 74 89 92 77 76 72 71 72 67 71 68 58 56 57 59 56 54 56 58 55 58 56 58 62 61 65 66 74 73 67 73 70 73 73 72 76 79
Wind_Direction
241 238 236 236 234 234 236 235 232 233 236 236 244 252 237 241 244 244 243 243 238 238 242 247 250 253 254 258 261 264 270 273 273 273 277 279 278 280 288 290 288 289 291
239 237 236 237 236 235 236 234 234 236 236 238 245 245 242 238 241 245 245 245 249 248 248 251 256 261 263 265 268 270 273 275 274 275 276 279 282 286 289 291 294 296 295
238 236 235 235 234 236 235 234 235 236 240 241 244 244 245 242 239 244 247 248 250 251 254 259 263 269 272 272 274 275 278 277 276 275 276 278 280 285 289 295 299 300 301
236 237 233 234 234 233 234 235 237 237 237 241 244 245 247 241 243 245 246 247 248 253 253 257 262 267 273 278 281 280 276 273 268 266 270 277 285 290 296 301 305 307 305
232 232 235 233 233 233 232 234 235 236 237 239 243 243 245 246 248 247 244 248 249 251 254 258 265 271 279 284 283 275 265 260 259 268 277 283 288 293 300 306 311 311 312
233 230 230 233 232 232 232 232 234 236 237 238 240 241 243 248 250 255 250 249 249 251 254 259 263 270 277 282 280 260 254 253 262 270 281 286 290 297 301 309 311 311 314
232 230 229 229 231 233 233 233 233 234 235 237 237 239 240 247 249 252 256 253 254 253 254 257 261 268 274 281 280 256 258 259 264 271 278 285 293 301 307 312 317 316 316
233 231 227 228 229 232 233 235 234 232 233 236 236 237 239 245 248 252 255 257 262 261 260 259 263 269 276 279 276 258 257 265 269 274 281 291 298 301 305 312 314 316 317
237 231 228 226 227 230 231 234 235 234 233 233 235 238 239 244 246 251 255 261 264 267 267 264 265 268 271 275 269 257 258 264 272 278 284 289 294 302 306 310 313 314 314
236 236 231 229 226 227 230 231 233 234 234 236 238 241 241 243 245 247 252 258 264 270 272 268 268 270 271 273 264 253 257 264 271 278 283 289 296 300 303 310 311 315 313
233 233 233 228 227 225 227 230 231 233 233 235 238 240 241 243 248 251 252 255 260 267 271 274 275 274 275 272 261 251 257 264 272 278 285 291 295 299 304 305 305 311 310
224 227 231 231 226 224 224 227 231 232 234 235 238 239 240 242 249 250 253 256 257 262 267 271 277 279 277 270 263 256 261 266 273 279 284 290 293 298 301 302 305 306 306
214 220 223 229 227 224 222 223 227 230 232 235 237 239 241 243 247 252 253 255 256 259 263 268 272 275 273 266 263 263 267 270 275 279 284 288 291 293 297 297 300 301 301
205 212 212 217 227 225 225 224 226 229 232 234 236 239 241 244 245 249 251 252 254 258 261 264 265 267 265 263 262 265 269 273 277 279 282 287 289 290 292 294 297 295 299
200 205 207 213 223 220 224 224 227 229 231 234 236 237 239 241 245 246 249 249 252 255 258 262 263 263 263 264 264 268 272 274 277 281 285 285 286 288 289 291 293 295 302
195 200 205 213 215 226 220 221 226 231 231 233 235 237 239 240 242 244 248 250 252 255 259 260 262 263 265 267 268 272 274 275 277 281 282 284 285 287 289 292 290 292 298
192 192 196 203 215 217 220 221 227 231 234 234 235 236 238 241 242 245 247 250 254 258 259 259 262 264 267 269 271 273 275 277 275 274 277 280 283 288 289 291 290 291 302
186 186 190 185 206 214 214 217 222 231 234 233 234 237 238 240 243 246 248 253 258 259 262 263 265 265 266 269 272 274 276 274 274 272 275 276 281 286 288 284 284 290 297
187 190 194 199 207 201 200 198 213 232 231 228 232 235 240 240 243 246 249 253 258 263 268 268 268 267 268 269 269 271 270 269 270 272 273 273 277 283 286 283 287 291 300
188 189 189 192 195 201 201 195 208 217 226 231 233 236 240 240 243 248 247 254 255 264 267 269 271 269 266 266 266 267 267 267 270 273 275 274 277 280 283 284 288 294 300
189 192 188 190 188 192 198 198 214 223 221 228 236 236 236 241 246 248 247 248 259 257 261 262 266 271 269 265 264 265 266 269 271 276 279 282 282 281 283 285 288 298 300
190 194 198 196 189 196 202 204 206 221 222 223 232 235 239 237 239 244 246 248 254 257 257 254 259 269 265 264 264 264 268 268 274 275 277 280 279 280 280 282 290 294 297
189 192 195 197 198 200 206 214 213 214 216 225 229 234 234 237 241 242 245 245 253 255 258 256 254 259 266 264 261 264 267 272 273 273 275 275 281 280 284 290 290 296 296
187 189 191 196 200 202 208 209 213 222 222 227 226 233 236 238 238 244 246 254 253 255 252 258 254 254 260 263 262 266 267 270 273 275 273 277 281 286 286 286 291 293 297
186 188 193 196 200 201 208 203 208 212 216 226 224 231 232 235 238 240 252 249 250 244 252 256 261 262 266 261 259 262 266 267 268 271 273 276 279 283 285 286 291 295 295
188 191 193 202 197 199 204 207 212 211 221 226 225 232 230 234 239 245 248 246 243 244 249 253 258 262 263 262 260 259 267 265 267 271 273 286 283 283 283 288 292 292 291